Regional Weather Roundup
Issued by NWS

Home | Current Version | Previous Version | Text Only | Print | Product List | Glossary Off
Versions: 1 2 3 4 5 6 7 8 9 10 11 12 13 14 15 16 17 18 19 20 21 22 23 24 25 26 27 28 29 30 31 32 33 34 35 36 37 38 39 40 41 42 43 44 45 46 47 48 49 50

000
ASUS43 KFSD 190102
RWRSD

WEATHER ROUNDUP FOR SOUTH DAKOTA
NATIONAL WEATHER SERVICE SIOUX FALLS SD
700 PM CST SAT FEB 18 2017

NOTE: "FAIR" INDICATES FEW OR NO CLOUDS BELOW 12,000 FEET WITH NO
SIGNIFICANT WEATHER AND/OR OBSTRUCTIONS TO VISIBILITY.


SDZ001>005-009-010-012>017-190200-
NORTHWEST AND NORTH CENTRAL SOUTH DAKOTA

CITY           SKY/WX    TMP DP  RH WIND       PRES   REMARKS
BUFFALO          N/A     48  33  56 NE8       29.53S
FAITH            N/A     49  34  56 SE16      29.59R
MOBRIDGE       CLEAR     42  32  67 SE10      29.63R
$$

SDZ012>016-024>037-041>051-057-063-072>074-190200-
SOUTHWEST AND SOUTH CENTRAL SOUTH DAKOTA

CITY           SKY/WX    TMP DP  RH WIND       PRES   REMARKS
RAPID CTY ARPT CLEAR     52  31  44 SE8       29.59R
PIERRE         CLEAR     50  34  54 SE15      29.64S
CUSTER         CLEAR     50  25  37 CALM      29.67R
ELLSWORTH AFB  CLEAR     54  31  41 S10       29.59R
PHILIP         CLEAR     53  32  44 E5        29.60S
PINE RIDGE     CLEAR     53  31  42 S13       29.64S
SPEARFISH      FAIR      50  32  50 S9        29.61S
WINNER         FAIR      53  31  42 S13       29.68F
$$

SDZ004>011-016>023-039-040-190200-
NORTHEAST SOUTH DAKOTA

CITY           SKY/WX    TMP DP  RH WIND       PRES   REMARKS
ABERDEEN       CLEAR     40  36  86 SE10      29.71F
WATERTOWN      CLOUDY    43  39  86 SE6       29.77R
BROOKINGS      CLOUDY    49  37  63 S7        29.79R
SISSETON         N/A     42  38  85 SW7       29.77S
$$

SDZ017-020-022-023-036>040-048>070-190200-
SOUTHEAST SOUTH DAKOTA

CITY           SKY/WX    TMP DP  RH WIND       PRES   REMARKS
SIOUX FALLS    CLOUDY    44  40  85 CALM      29.79R
HURON          CLEAR     47  39  74 SE10      29.73F
CHAMBERLAIN    CLEAR     46  38  74 SE8       29.71S
MITCHELL       CLOUDY    47  38  71 SE10      29.76S
YANKTON        PTCLDY    54  34  47 SE7       29.78R
$$

ABBREVIATIONS USED IN REMARKS
   TC - TEMPERATURE IN CELSIUS
  WCI - WIND CHILL INDEX
   HX - HEAT INDEX
  VSB - VISIBILITY





USA.gov is the U.S. government's official web portal to all federal, state and local government web resources and services.